Zurück zum Katalog

STARLINK-36645

AktivKommunikationSSO
NORAD 67707·PAYLOAD·🇺🇸 United States

Gestartet Feb 7, 2026 von Vandenberg Space Force Base

Loading…

Nächste Überflüge (nächste 24 Stunden)

TLE

AktuellSource: CelesTrak SupGP

Epoche: Sep 14, 2026, 21:02 UTC

1 67707C 26025Q   26257.87687500 -.00018116  00000+0 -56217-3 0  2574
2 67707  97.2859   7.9280 0001164 104.7207  77.5136 15.33458936    15

Verfolge STARLINK-36645 in Echtzeit mit AllMySat

Download on the App Store